Location: Gorze? G�rny
(49.8500°N, 19.5000°E)
Time: 03:55:16
(UTC+00:00)

Cosmos 44 Rocket - Pass Details

Date: 13 May 2021
Orbit: 636 x 753 km, 65.1° (Epoch: 23 June)

Event Time Altitude Azimuth Distance (km) Brightness Sun altitude
Rises 23:04:39 0° 317° (NW) 3,215 7.3 -21.3°
Reaches altitude 10° 23:07:07 10° 313° (NW) 2,282 6.4 -21.2°
Maximum altitude 23:12:09 49° 239° (WSW) 953 3.7 -21.1°
Enters shadow 23:12:51 46° 213° (SSW) 993 3.6 -21.1°
